Date String (YYYY-MM-DD hh:mm:ss) UTC,Instrument flags,Ambient pressure (hPa),Sample flow (lpm),Bypass flow (lpm),Sample temperature (°C),Ambient temperature (°C),ASC tube jacket temperature (°C),LED temperature (°C),Box temperature (°C),Sample RH (%),Span deviation,Mass concentration (μg/m³),Mass concentration (μg/m³),Mass concentration (μg/m³)
DateTimeUTC,F1_M11,P_M11,Q1_M11,Q2_M11,T1_M11,T2_M11,T3_M11,T4_M11,T5_M11,U1_M11,ZSPAN_M11,X0_M11,X2_M11,X1_M11
2022-07-16 00:00:00,,0829.5,4.99,0.00,29.2,27.3,00.0,37.9,31.1,27.7,0000.0,0008.57,0003.29,0002.77
2022-07-16 00:01:00,,0829.5,5.00,0.00,29.2,27.6,00.0,37.9,31.1,28.0,0000.0,0008.52,0003.29,0002.79
2022-07-16 00:02:00,,0829.6,5.01,0.00,29.2,27.7,00.0,38.0,31.2,27.9,0000.0,0007.85,0003.32,0002.81
2022-07-16 00:03:00,,0829.5,5.00,0.00,29.3,27.9,00.0,38.0,31.2,27.6,0000.0,0007.52,0003.30,0002.81
2022-07-16 00:04:00,,0829.5,5.00,0.00,29.3,28.1,00.0,38.0,31.3,27.2,0000.0,0006.80,0003.25,0002.81
2022-07-16 00:05:00,,0829.5,5.00,0.00,29.4,28.2,00.0,38.0,31.4,27.1,0000.0,0005.89,0003.19,0002.81
2022-07-16 00:06:00,,0829.5,4.99,0.00,29.4,28.0,00.0,38.0,31.4,27.0,0000.0,0005.87,0003.20,0002.81
2022-07-16 00:07:00,,0829.5,5.02,0.00,29.4,27.3,00.0,37.9,31.3,26.7,0000.0,0005.69,0003.19,0002.81
2022-07-16 00:08:00,,0829.5,4.99,0.00,29.3,27.0,00.0,37.9,31.2,27.0,0000.0,0004.26,0003.18,0002.81
2022-07-16 00:09:00,,0829.6,4.99,0.00,29.3,27.0,00.0,37.9,31.1,27.4,0000.0,0004.28,0003.20,0002.82
2022-07-16 00:10:00,,0829.6,5.00,0.00,29.2,27.2,00.0,37.9,31.0,27.3,0000.0,0004.37,0003.23,0002.85
2022-07-16 00:11:00,,0829.5,5.00,0.00,29.2,27.4,00.0,37.9,31.0,27.6,0000.0,0004.33,0003.24,0002.87
2022-07-16 00:12:00,,0829.5,5.01,0.00,29.2,27.5,00.0,37.9,31.1,27.5,0000.0,0004.40,0003.26,0002.87
2022-07-16 00:13:00,,0829.5,5.00,0.00,29.3,27.7,00.0,38.0,31.2,27.4,0000.0,0004.40,0003.25,0002.86
2022-07-16 00:14:00,,0829.5,4.99,0.00,29.3,27.9,00.0,38.0,31.2,27.4,0000.0,0004.50,0003.27,0002.88
2022-07-16 00:15:00,,0829.5,5.01,0.00,29.3,28.1,00.0,38.0,31.3,27.5,0000.0,0004.57,0003.30,0002.90
2022-07-16 00:16:00,,0829.5,4.99,0.00,29.4,28.3,00.0,38.0,31.4,27.3,0000.0,0004.68,0003.33,0002.92
2022-07-16 00:17:00,,0829.5,5.01,0.00,29.4,28.3,00.0,38.0,31.4,27.4,0000.0,0004.59,0003.32,0002.94
2022-07-16 00:18:00,,0829.5,4.99,0.00,29.4,27.9,00.0,38.0,31.4,27.5,0000.0,0004.53,0003.31,0002.97
2022-07-16 00:19:00,,0829.5,5.00,0.00,29.4,27.2,00.0,37.9,31.3,27.6,0000.0,0004.62,0003.33,0002.99
2022-07-16 00:20:00,,0829.4,5.00,0.00,29.4,27.1,00.0,37.9,31.2,27.6,0000.0,0004.63,0003.35,0003.02
2022-07-16 00:21:00,,0829.4,5.00,0.00,29.3,27.1,00.0,37.9,31.1,27.6,0000.0,0004.57,0003.35,0003.06
2022-07-16 00:22:00,,0829.3,5.00,0.00,29.3,27.3,00.0,38.0,31.0,27.8,0000.0,0004.72,0003.37,0003.09
2022-07-16 00:23:00,,0829.2,5.00,0.00,29.3,27.5,00.0,38.0,31.1,28.1,0000.0,0004.84,0003.38,0003.12
2022-07-16 00:24:00,,0829.3,4.99,0.00,29.3,27.7,00.0,38.0,31.2,28.3,0000.0,0004.82,0003.40,0003.14
2022-07-16 00:25:00,,0829.3,5.01,0.00,29.3,27.9,00.0,38.0,31.2,28.3,0000.0,0005.20,0003.42,0003.15
2022-07-16 00:26:00,,0829.3,5.01,0.00,29.3,28.0,00.0,38.0,31.3,28.1,0000.0,0006.12,0003.42,0003.17
2022-07-16 00:27:00,,0829.2,4.99,0.00,29.4,28.2,00.0,38.0,31.4,28.2,0000.0,0007.05,0003.43,0003.18
2022-07-16 00:28:00,,0829.3,4.99,0.00,29.4,28.3,00.0,38.1,31.4,28.5,0000.0,0007.69,0003.46,0003.19
2022-07-16 00:29:00,,0829.3,5.00,0.00,29.4,28.0,00.0,38.0,31.4,28.4,0000.0,0007.80,0003.51,0003.20
2022-07-16 00:30:00,,0829.3,5.00,0.00,29.4,27.3,00.0,38.0,31.3,28.6,0000.0,0007.82,0003.51,0003.21
2022-07-16 00:31:00,,0829.2,5.00,0.00,29.4,27.0,00.0,37.9,31.2,28.7,0000.0,0008.06,0003.53,0003.22
2022-07-16 00:32:00,,0829.3,5.02,0.00,29.3,27.0,00.0,38.0,31.1,28.8,0000.0,0008.11,0003.54,0003.23
2022-07-16 00:33:00,,0829.2,5.00,0.00,29.3,27.2,00.0,38.0,31.1,29.2,0000.0,0008.29,0003.56,0003.23
2022-07-16 00:34:00,,0829.3,5.00,0.00,29.3,27.4,00.0,38.0,31.1,29.4,0000.0,0008.50,0003.58,0003.24
2022-07-16 00:35:00,,0829.3,5.01,0.00,29.3,27.6,00.0,38.0,31.1,29.4,0000.0,0008.52,0003.58,0003.25
2022-07-16 00:36:00,,0829.3,4.98,0.00,29.3,27.8,00.0,38.0,31.2,29.6,0000.0,0008.44,0003.60,0003.26
2022-07-16 00:37:00,,0829.3,5.01,0.00,29.3,28.0,00.0,38.0,31.3,29.3,0000.0,0007.97,0003.63,0003.28
2022-07-16 00:38:00,,0829.2,5.00,0.00,29.4,28.2,00.0,38.0,31.3,29.2,0000.0,0007.60,0003.66,0003.29
2022-07-16 00:39:00,,0829.3,4.99,0.00,29.4,28.3,00.0,38.1,31.4,29.3,0000.0,0006.82,0003.69,0003.31
2022-07-16 00:40:00,,0829.3,5.01,0.00,29.4,28.4,00.0,38.1,31.5,29.4,0000.0,0007.03,0003.71,0003.32
2022-07-16 00:41:00,,0829.2,4.99,0.00,29.5,27.9,00.0,38.0,31.4,29.4,0000.0,0007.58,0003.72,0003.34
2022-07-16 00:42:00,,0829.2,5.00,0.00,29.4,27.3,00.0,38.0,31.3,29.4,0000.0,0007.80,0003.73,0003.36
2022-07-16 00:43:00,,0829.2,5.01,0.00,29.4,27.1,00.0,38.0,31.2,29.7,0000.0,0007.76,0003.74,0003.37
2022-07-16 00:44:00,,0829.3,4.99,0.00,29.3,27.2,00.0,38.0,31.1,30.3,0000.0,0007.63,0003.74,0003.39
2022-07-16 00:45:00,,0829.3,5.00,0.00,29.3,27.3,00.0,38.0,31.1,30.2,0000.0,0007.64,0003.73,0003.40
2022-07-16 00:46:00,,0829.2,5.00,0.00,29.3,27.5,00.0,38.0,31.1,29.7,0000.0,0008.45,0003.75,0003.42
2022-07-16 00:47:00,,0829.2,5.00,0.00,29.3,27.7,00.0,38.0,31.2,29.8,0000.0,0008.60,0003.77,0003.42
2022-07-16 00:48:00,,0829.2,5.01,0.00,29.3,27.9,00.0,38.0,31.3,29.7,0000.0,0009.33,0003.79,0003.42
2022-07-16 00:49:00,,0829.3,4.99,0.00,29.4,28.1,00.0,38.1,31.3,29.9,0000.0,0009.70,0003.81,0003.44
2022-07-16 00:50:00,,0829.3,5.01,0.00,29.4,28.2,00.0,38.1,31.4,30.0,0000.0,0009.70,0003.79,0003.45
2022-07-16 00:51:00,,0829.3,4.99,0.00,29.4,28.3,00.0,38.1,31.5,29.9,0000.0,0009.75,0003.81,0003.46
2022-07-16 00:52:00,,0829.3,4.99,0.00,29.5,27.9,00.0,38.1,31.4,30.0,0000.0,0009.47,0003.83,0003.47
2022-07-16 00:53:00,,0829.3,5.01,0.00,29.4,27.3,00.0,38.0,31.3,30.2,0000.0,0009.19,0003.83,0003.48
2022-07-16 00:54:00,,0829.2,5.00,0.00,29.4,27.0,00.0,38.0,31.3,30.6,0000.0,0009.19,0003.84,0003.49
2022-07-16 00:55:00,,0829.2,4.99,0.00,29.3,27.1,00.0,38.0,31.1,30.9,0000.0,0009.25,0003.86,0003.50
2022-07-16 00:56:00,,0829.2,5.00,0.00,29.3,27.2,00.0,38.0,31.1,31.0,0000.0,0009.52,0003.87,0003.50
2022-07-16 00:57:00,,0829.4,5.00,0.00,29.3,27.4,00.0,38.0,31.1,31.2,0000.0,0008.78,0003.88,0003.50
2022-07-16 00:58:00,,0829.3,5.01,0.00,29.3,27.6,00.0,38.0,31.2,31.2,0000.0,0008.72,0003.90,0003.51
2022-07-16 00:59:00,,0829.4,5.01,0.00,29.3,27.8,00.0,38.0,31.2,30.7,0000.0,0008.37,0003.92,0003.52
